Simultaneous Nadir Overpasses (SNOs) Predictions

Prediction of SNOs between NOAA-20 and AQUA Satellite Orbit:

Table of predicted SNOs for the next 14.0 days since TLE Epoch: 11/4/2023
Index Date (NOAA-20) Time (NOAA-20) Lat,Lon (NOAA-20) SZA (NOAA-20 ) Date (AQUA) Time (AQUA) Lat,Lon (AQUA) SZA (AQUA ) Distance(km) Time Diff (sec)
1 11/06/2023 14:59:27 -80.96, 50.13 75.61 11/06/2023 14:59:29 -80.96, 50.10 75.61 0.51 2
2 11/09/2023 03:53:28 -80.91,-144.49 74.71 11/09/2023 03:54:41 -80.91,-144.39 74.77 1.85 73
3 11/09/2023 04:44:09 80.97, 24.13 105.12 11/09/2023 04:44:02 80.96, 24.00 105.14 2.44 7
4 11/11/2023 17:38:08 80.95,-169.86 105.90 11/11/2023 17:39:11 80.95,-169.97 105.88 1.89 63
5 11/11/2023 18:28:53 -80.96, -2.40 74.11 11/11/2023 18:28:35 -80.96, -2.21 74.13 3.28 18
6 11/14/2023 07:22:52 -80.93, 163.58 73.35 11/14/2023 07:23:43 -80.93, 163.70 73.40 2.19 51
7 11/14/2023 08:13:32 81.00, -27.48 106.43 11/14/2023 08:13:03 81.00, -27.63 106.47 2.58 29
8 11/16/2023 21:07:33 80.94, 137.67 107.28 11/16/2023 21:08:11 80.94, 137.74 107.24 1.22 38



Historial Predications of SNOs between NOAA-20 and AQUA
